Terminal Aerodrome Forecast
Issued by NWS

Home | Current Version | Previous Version | Graphics & Text | Print | Product List | Glossary On
Versions: 1 2 3 4 5 6 7 8 9 10 11 12 13 14 15 16
272
FTUS43 KLSX 262107 AAA
TAFSUS
TAF AMD
KSUS 262107Z 2621/2718 28011KT 6SM -SHRA VCTS OVC040CB
     FM270000 28006KT 6SM -SHRA OVC010
     FM270400 30012G21KT 6SM -SHRA OVC008
     FM270800 29011KT P6SM OVC015
     FM271400 28010KT P6SM BKN035=

USA.gov is the U.S. government's official web portal to all federal, state and local government web resources and services.